Location: Vihti�l�
(61.3833°N, 23.0667°E)
Time: 04:11:04
(UTC+00:00)

Cosmos 1766 Rocket - Pass Details

Date: 29 November 2020
Orbit: 604 x 633 km, 82.5° (Epoch: 22 January)

Event Time Altitude Azimuth Distance (km) Brightness Sun altitude
Exits shadow 03:20:46 31° 174° (S) 1,123 4.9 -25.4°
Maximum altitude 03:22:50 68° 100° (E) 689 3.9 -25.1°
Drops below altitude 10° 03:27:18 10° 18° (NNE) 2,026 6.4 -24.6°
Sets 03:29:33 0° 16° (NNE) 2,935 7.2 -24.3°
